This is the latest recevied weather packets stored in our database for station/object N8SDR. If no packets are shown the sender has not sent any weather packets the latest 10 day(s).
| Time | Temp. | Humidity | Pressure | Rain* | Wind** | Luminosity | Snow |
|---|---|---|---|---|---|---|---|
| 1777685039 | 8.89° C | 77% | 1013.3 hPa | 0 mm | - | 0 W/m² | - |
| 1777684736 | 8.89° C | 76% | 1013.2 hPa | 0 mm | - | 0 W/m² | - |
| 1777684432 | 8.89° C | 75% | 1013.1 hPa | 0 mm | - | 0 W/m² | - |
| 1777684129 | 8.89° C | 74% | 1013 hPa | 0 mm | - | 0 W/m² | - |
| 1777683826 | 9.44° C | 72% | 1013.1 hPa | 0 mm | - | 0 W/m² | - |
| 1777683523 | 9.44° C | 70% | 1012.9 hPa | 0 mm | - | 0 W/m² | - |
| 1777683221 | 9.44° C | 69% | 1012.8 hPa | 0 mm | - | 0 W/m² | - |
| 1777682918 | 9.44° C | 70% | 1012.8 hPa | 0 mm | - | 0 W/m² | - |
| 1777682614 | 10° C | 69% | 1012.7 hPa | 0 mm | - | 0 W/m² | - |
| 1777682312 | 10° C | 68% | 1012.4 hPa | 0 mm | - | 0 W/m² | - |
| 1777682009 | 10° C | 67% | 1012.3 hPa | 0 mm | - | 1 W/m² | - |
| 1777681705 | 10° C | 67% | 1012.2 hPa | 0 mm | - | 2 W/m² | - |
| 1777681402 | 10.56° C | 66% | 1012.1 hPa | 0 mm | - | 6 W/m² | - |
| 1777681100 | 10.56° C | 64% | 1012 hPa | 0 mm | - | 9 W/m² | - |
| 1777680798 | 10.56° C | 63% | 1012.1 hPa | 0 mm | - | 12 W/m² | - |
| 1777680495 | 11.11° C | 61% | 1012.2 hPa | 0 mm | - | 17 W/m² | - |
| 1777680193 | 11.11° C | 60% | 1012.3 hPa | 0 mm | - | 19 W/m² | - |
| 1777679888 | 11.11° C | 59% | 1012.3 hPa | 0 mm | - | 24 W/m² | - |
| 1777679584 | 11.11° C | 59% | 1012.5 hPa | 0 mm | - | 28 W/m² | - |
| 1777679280 | 11.11° C | 60% | 1012.4 hPa | 0 mm | - | 32 W/m² | - |
| 1777678977 | 11.11° C | 58% | 1012 hPa | 0 mm | - | 29 W/m² | - |
| 1777678676 | 11.67° C | 57% | 1012.3 hPa | 0 mm | - | 32 W/m² | - |
| 1777678373 | 12.22° C | 58% | 1012.2 hPa | 0 mm | - | 49 W/m² | - |
| 1777678068 | 12.22° C | 58% | 1012.3 hPa | 0 mm | - | 56 W/m² | - |
| 1777677765 | 11.67° C | 64% | 1012.1 hPa | 0 mm | - | 86 W/m² | - |
* Rain latest hour (hover to see other rain measurements)
** Current wind speed in m/s (hover to see current wind gust speed)